TRA64R EHRD-EKBI

Flight info

Callsign TRA64R
Flight time 0h 50m
Altitude 33000
Route ANDIK N873 MIKRO
Aircraft A321/M-SDE3FGHIRWY/LB1

Departure

Time 2025-10-08 14:30
Airport Rotterdam The Hague Airport (EHRD)

Arrival

Time 2025-10-08 15:20
Airport Billund Airport (EKBI)
Time Latitude Longitude Altitude Speed Heading
2025-10-08 14:05 51.95017 4.43505 2 ft 0 kts 326°
2025-10-08 14:24 51.95039 4.43482 2 ft 8 kts 329°
2025-10-08 14:24 51.95122 4.43619 1 ft 10 kts 10°
2025-10-08 14:25 51.95280 4.43527 1 ft 14 kts 26°
2025-10-08 14:25 51.95412 4.43821 1 ft 18 kts 57°
2025-10-08 14:26 51.95567 4.44211 1 ft 23 kts 57°
2025-10-08 14:26 51.95758 4.44688 1 ft 28 kts 56°
2025-10-08 14:27 51.95984 4.45257 1 ft 32 kts 57°
2025-10-08 14:27 51.96148 4.45630 1 ft 15 kts 29°
2025-10-08 14:28 51.96229 4.45378 1 ft 21 kts 238°
2025-10-08 14:28 51.95603 4.43798 42 ft 159 kts 238°
2025-10-08 14:29 51.94424 4.40552 1732 ft 175 kts 257°
2025-10-08 14:29 51.95751 4.37407 2269 ft 214 kts 348°
2025-10-08 14:30 51.98713 4.39299 3064 ft 259 kts 47°
2025-10-08 14:30 52.01069 4.43921 4871 ft 266 kts 48°
2025-10-08 14:31 52.03426 4.48631 6479 ft 277 kts 49°
2025-10-08 14:32 52.07163 4.56105 8706 ft 293 kts 48°
2025-10-08 14:32 52.08462 4.58694 9450 ft 298 kts 48°
2025-10-08 14:32 52.11151 4.64064 10583 ft 321 kts 48°
2025-10-08 14:33 52.14152 4.70051 11294 ft 353 kts 48°
2025-10-08 14:33 52.17285 4.76360 12676 ft 362 kts 48°
2025-10-08 14:34 52.20485 4.82826 14055 ft 371 kts 48°
2025-10-08 14:34 52.23785 4.89509 15263 ft 379 kts 48°
2025-10-08 14:35 52.27099 4.96225 16518 ft 386 kts 48°
2025-10-08 14:36 52.32356 5.06283 18355 ft 392 kts 37°
2025-10-08 14:36 52.34577 5.08854 18902 ft 391 kts 25°
2025-10-08 14:36 52.39653 5.11904 19932 ft 390 kts 10°
2025-10-08 14:37 52.44943 5.14214 20961 ft 396 kts 10°
2025-10-08 14:37 52.50323 5.16579 21958 ft 403 kts 10°
2025-10-08 14:38 52.55780 5.18988 22958 ft 409 kts 10°
2025-10-08 14:38 52.61289 5.21421 23883 ft 415 kts 10°
2025-10-08 14:39 52.66867 5.23887 24650 ft 420 kts 10°
2025-10-08 14:40 52.81021 5.42005 26844 ft 458 kts 49°
2025-10-08 14:42 52.97025 5.76214 29513 ft 481 kts 49°
2025-10-08 14:44 53.13645 6.12197 31820 ft 498 kts 49°
2025-10-08 14:46 53.30179 6.48573 33187 ft 480 kts 49°
2025-10-08 14:48 53.48567 6.80063 33175 ft 472 kts 38°
2025-10-08 14:50 53.70486 7.01438 33163 ft 454 kts 15°
2025-10-08 14:52 53.94038 7.17205 33175 ft 455 kts 15°
2025-10-08 14:54 54.16550 7.32484 33186 ft 454 kts 15°
2025-10-08 14:56 54.37699 7.56327 33160 ft 466 kts 36°
2025-10-08 14:58 54.57190 7.85671 31017 ft 462 kts 37°
2025-10-08 15:00 54.75987 8.14317 26514 ft 437 kts 38°
2025-10-08 15:01 54.84888 8.28025 24599 ft 422 kts 38°
2025-10-08 15:02 54.89247 8.34748 23615 ft 416 kts 38°
2025-10-08 15:02 54.93526 8.41383 22617 ft 407 kts 38°
2025-10-08 15:03 54.95625 8.44646 22108 ft 403 kts 38°
2025-10-08 15:03 55.01808 8.54300 20658 ft 394 kts 38°
2025-10-08 15:04 55.05892 8.60674 19678 ft 390 kts 38°
2025-10-08 15:04 55.09896 8.66947 18720 ft 387 kts 38°
2025-10-08 15:05 55.13881 8.73230 17727 ft 383 kts 38°
2025-10-08 15:05 55.17788 8.79394 16793 ft 377 kts 38°
2025-10-08 15:06 55.21692 8.85562 15809 ft 374 kts 38°
2025-10-08 15:06 55.23591 8.88575 15326 ft 372 kts 38°
2025-10-08 15:07 55.27405 8.94632 14534 ft 364 kts 39°
2025-10-08 15:07 55.33027 9.03599 13044 ft 360 kts 39°
2025-10-08 15:08 55.36700 9.09474 12145 ft 354 kts 39°
2025-10-08 15:08 55.40319 9.15273 11250 ft 349 kts 39°
2025-10-08 15:09 55.43885 9.20994 10349 ft 345 kts 39°
2025-10-08 15:09 55.47407 9.26667 9330 ft 343 kts 39°
2025-10-08 15:10 55.50823 9.32201 8286 ft 316 kts 39°
2025-10-08 15:10 55.52403 9.34768 7786 ft 300 kts 39°
2025-10-08 15:11 55.55347 9.39555 6788 ft 276 kts 39°
2025-10-08 15:11 55.59358 9.46064 5338 ft 249 kts 39°
2025-10-08 15:12 55.61838 9.50099 4748 ft 239 kts 39°
2025-10-08 15:12 55.64287 9.54072 4508 ft 237 kts 38°
2025-10-08 15:13 55.67046 9.56263 4252 ft 209 kts 359°
2025-10-08 15:13 55.69785 9.55282 4144 ft 199 kts 332°
2025-10-08 15:14 55.72338 9.53372 3971 ft 199 kts 333°
2025-10-08 15:14 55.73538 9.52223 3912 ft 195 kts 318°
2025-10-08 15:15 55.74905 9.48281 3615 ft 190 kts 279°
2025-10-08 15:15 55.74801 9.41259 2901 ft 184 kts 268°
2025-10-08 15:16 55.74622 9.35048 2219 ft 151 kts 268°
2025-10-08 15:16 55.74570 9.33248 2022 ft 146 kts 268°
2025-10-08 15:17 55.74468 9.29768 1631 ft 135 kts 268°
2025-10-08 15:17 55.74372 9.26480 1269 ft 132 kts 267°
2025-10-08 15:18 55.74274 9.23191 892 ft 135 kts 268°
2025-10-08 15:18 55.74223 9.21522 691 ft 135 kts 267°
2025-10-08 15:19 55.74118 9.18176 350 ft 136 kts 269°
2025-10-08 15:19 55.74021 9.14775 225 ft 23 kts 267°
2025-10-08 15:20 55.74018 9.14533 218 ft 8 kts 290°
2025-10-08 15:20 55.74117 9.14491 220 ft 1 kts 356°
2025-10-08 15:21 55.74135 9.14489 221 ft 3 kts 356°
2025-10-08 15:21 55.74188 9.14674 216 ft 14 kts 85°
2025-10-08 15:22 55.74191 9.14864 216 ft 15 kts 88°
2025-10-08 15:22 55.74193 9.14942 224 ft 5 kts 84°
2025-10-08 15:23 55.74277 9.14992 216 ft 6 kts 357°
2025-10-08 15:23 55.74418 9.14978 219 ft 7 kts 359°
2025-10-08 15:24 55.74473 9.15071 216 ft 5 kts 22°
2025-10-08 15:24 55.74539 9.15077 221 ft 0 kts 356°